Location: Le Petit-Vavre
(46.5081°N, 1.5239°E)
Time: 13:56:12
(UTC+00:00)

Okean-O - Pass Details

Date: 03 March 2021
Orbit: 639 x 640 km, 98.2° (Epoch: 19 April)

Event Time Altitude Azimuth Distance (km) Brightness Sun altitude
Rises 18:21:37 0° 158° (SSE) 2,933 5.8 -7.5°
Reaches altitude 10° 18:23:49 10° 156° (SSE) 2,029 5.0 -7.8°
Maximum altitude 18:28:12 69° 73° (ENE) 690 2.6 -8.6°
Drops below altitude 10° 18:32:38 10° 351° (N) 2,044 5.3 -9.3°
Sets 18:34:51 0° 349° (N) 2,958 6.2 -9.7°
